Date String (YYYY-MM-DD hh:mm:ss) UTC,Instrument flags,Ambient pressure (hPa),Sample flow (lpm),Bypass flow (lpm),Sample temperature (°C),Ambient temperature (°C),ASC tube jacket temperature (°C),LED temperature (°C),Box temperature (°C),Sample RH (%),Span deviation,Mass concentration (μg/m³),Mass concentration (μg/m³),Mass concentration (μg/m³)
DateTimeUTC,F1_M11,P_M11,Q1_M11,Q2_M11,T1_M11,T2_M11,T3_M11,T4_M11,T5_M11,U1_M11,ZSPAN_M11,X0_M11,X2_M11,X1_M11
2021-10-01 22:00:00,,0829.6,5.00,0.00,30.1,29.2,00.0,39.1,32.0,20.2,0000.4,0018.17,0009.78,0008.87
2021-10-01 22:01:00,,0829.5,5.00,0.00,30.2,29.3,00.0,39.1,32.0,20.2,0000.3,0018.24,0009.75,0008.84
2021-10-01 22:02:00,,0829.5,5.00,0.00,30.2,29.4,00.0,39.1,32.1,20.5,0000.1,0017.98,0009.68,0008.78
2021-10-01 22:03:00,,0829.5,4.99,0.00,30.2,29.4,00.0,39.1,32.0,20.4,-000.0,0018.15,0009.64,0008.76
2021-10-01 22:04:00,,0829.6,5.01,0.00,30.2,27.7,00.0,39.1,31.6,20.6,-000.3,0017.82,0009.59,0008.75
2021-10-01 22:05:00,,0829.6,4.99,0.00,29.9,25.9,00.0,39.1,31.1,20.6,0000.0,0018.13,0009.59,0008.77
2021-10-01 22:06:00,,0829.6,5.02,0.00,29.8,25.8,00.0,39.1,31.0,20.8,0000.2,0018.31,0009.59,0008.79
2021-10-01 22:07:00,,0829.6,4.99,0.00,29.7,26.2,00.0,39.0,31.1,20.9,0000.1,0018.20,0009.58,0008.82
2021-10-01 22:08:00,,0829.6,5.01,0.00,29.7,26.8,00.0,39.0,31.3,20.9,-000.1,0018.15,0009.61,0008.85
2021-10-01 22:09:00,,0829.6,5.00,0.00,29.7,27.2,00.0,38.9,31.3,21.2,0000.2,0017.21,0009.65,0008.90
2021-10-01 22:10:00,,0829.5,5.00,0.00,29.7,27.6,00.0,38.9,31.4,21.0,0000.3,0016.75,0009.71,0008.95
2021-10-01 22:11:00,,0829.6,4.98,0.00,29.7,28.0,00.0,38.9,31.5,21.0,0000.1,0016.68,0009.74,0009.00
2021-10-01 22:12:00,,0829.6,5.01,0.00,29.8,28.2,00.0,38.9,31.6,21.1,-000.0,0016.16,0009.77,0009.05
2021-10-01 22:13:00,,0829.5,4.99,0.00,29.8,28.5,00.0,38.9,31.6,21.2,0000.1,0015.96,0009.78,0009.09
2021-10-01 22:14:00,,0829.5,5.00,0.00,29.8,28.7,00.0,38.9,31.7,21.2,0000.2,0015.78,0009.81,0009.10
2021-10-01 22:15:00,,0829.6,5.00,0.00,29.9,28.8,00.0,38.9,31.7,21.1,0000.5,0015.78,0009.90,0009.14
2021-10-01 22:16:00,,0829.6,4.99,0.00,29.9,28.9,00.0,38.9,31.8,20.8,0000.5,0016.46,0010.00,0009.20
2021-10-01 22:17:00,,0829.6,4.99,0.00,29.9,28.9,00.0,38.9,31.8,20.7,0000.4,0016.98,0010.05,0009.27
2021-10-01 22:18:00,,0829.6,5.01,0.00,30.0,29.0,00.0,38.9,31.9,20.7,0000.4,0017.14,0010.11,0009.34
2021-10-01 22:19:00,,0829.6,5.00,0.00,30.0,29.1,00.0,39.0,31.9,20.6,0000.5,0017.72,0010.18,0009.41
2021-10-01 22:20:00,,0829.5,5.00,0.00,30.1,29.1,00.0,39.0,32.0,20.6,0000.3,0018.35,0010.30,0009.49
2021-10-01 22:21:00,,0829.5,5.00,0.00,30.1,29.3,00.0,39.0,32.0,20.6,0000.1,0018.60,0010.38,0009.55
2021-10-01 22:22:00,,0829.5,4.99,0.00,30.1,29.3,00.0,39.0,32.0,20.7,0000.3,0018.63,0010.45,0009.62
2021-10-01 22:23:00,,0829.5,5.00,0.00,30.1,28.2,00.0,39.0,31.7,20.7,0000.4,0018.72,0010.50,0009.67
2021-10-01 22:24:00,,0829.6,5.00,0.00,29.9,26.1,00.0,39.0,31.2,20.9,0000.5,0018.77,0010.61,0009.75
2021-10-01 22:25:00,,0829.6,4.99,0.00,29.8,25.7,00.0,39.0,31.0,21.2,0000.4,0018.68,0010.71,0009.84
2021-10-01 22:26:00,,0829.6,5.00,0.00,29.7,26.1,00.0,38.9,31.0,21.3,0000.4,0019.03,0010.77,0009.89
2021-10-01 22:27:00,,0829.6,5.01,0.00,29.6,26.6,00.0,38.9,31.2,21.3,0000.3,0018.61,0010.76,0009.89
2021-10-01 22:28:00,,0829.5,5.01,0.00,29.6,27.1,00.0,38.9,31.3,21.3,0000.2,0017.87,0010.76,0009.85
2021-10-01 22:29:00,,0829.5,4.99,0.00,29.6,27.5,00.0,38.8,31.4,21.3,0000.2,0017.77,0010.71,0009.80
2021-10-01 22:30:00,,0829.6,5.00,0.00,29.7,27.8,00.0,38.8,31.4,21.3,0000.2,0017.53,0010.63,0009.74
2021-10-01 22:31:00,,0829.6,4.99,0.00,29.7,28.1,00.0,38.8,31.5,21.3,0000.3,0017.42,0010.55,0009.67
2021-10-01 22:32:00,,0829.6,5.02,0.00,29.7,28.3,00.0,38.8,31.6,21.3,0000.5,0017.71,0010.50,0009.60
2021-10-01 22:33:00,,0829.5,4.99,0.00,29.8,28.5,00.0,38.8,31.6,21.1,0000.5,0017.71,0010.44,0009.55
2021-10-01 22:34:00,,0829.6,5.01,0.00,29.8,28.7,00.0,38.8,31.7,21.1,0000.6,0017.80,0010.44,0009.55
2021-10-01 22:35:00,,0829.6,5.00,0.00,29.9,28.9,00.0,38.8,31.7,21.0,0000.6,0018.38,0010.42,0009.53
2021-10-01 22:36:00,,0829.6,4.99,0.00,29.9,29.0,00.0,38.9,31.8,20.8,0000.4,0018.74,0010.43,0009.53
2021-10-01 22:37:00,,0829.6,5.00,0.00,29.9,29.1,00.0,38.9,31.9,20.8,0000.4,0019.41,0010.38,0009.53
2021-10-01 22:38:00,,0829.6,5.00,0.00,30.0,29.2,00.0,38.9,31.9,20.8,0000.3,0018.81,0010.35,0009.51
2021-10-01 22:39:00,,0829.6,5.00,0.00,30.0,29.3,00.0,38.9,32.0,20.9,0000.3,0019.35,0010.33,0009.51
2021-10-01 22:40:00,,0829.7,5.01,0.00,30.1,29.4,00.0,39.0,32.0,20.7,0000.4,0021.85,0010.36,0009.53
2021-10-01 22:41:00,,0829.7,5.00,0.00,30.1,29.4,00.0,39.0,32.0,20.6,0000.3,0022.74,0010.49,0009.61
2021-10-01 22:42:00,,0829.7,5.00,0.00,30.1,28.6,00.0,39.0,31.8,20.5,0000.1,0022.30,0010.55,0009.69
2021-10-01 22:43:00,,0830.0,5.00,0.00,30.0,26.4,00.0,39.0,31.2,20.7,-000.0,0021.77,0010.58,0009.78
2021-10-01 22:44:00,,0829.7,5.00,0.00,29.8,25.7,00.0,39.0,31.0,21.1,-000.1,0021.79,0010.61,0009.80
2021-10-01 22:45:00,,0829.8,5.01,0.00,29.7,26.0,00.0,38.9,31.1,21.3,-000.2,0022.02,0010.61,0009.80
2021-10-01 22:46:00,,0829.6,5.01,0.00,29.6,26.5,00.0,38.9,31.2,21.2,-000.2,0022.14,0010.60,0009.83
2021-10-01 22:47:00,,0829.6,4.99,0.00,29.6,27.0,00.0,38.8,31.3,21.5,0000.1,0022.27,0010.57,0009.83
2021-10-01 22:48:00,,0829.6,5.00,0.00,29.6,27.4,00.0,38.8,31.3,21.6,0000.2,0022.13,0010.60,0009.81
2021-10-01 22:49:00,,0829.7,5.00,0.00,29.6,27.8,00.0,38.8,31.4,21.2,0000.3,0022.80,0010.56,0009.81
2021-10-01 22:50:00,,0829.7,5.00,0.00,29.7,28.1,00.0,38.8,31.5,21.1,0000.3,0023.30,0010.61,0009.85
2021-10-01 22:51:00,,0829.7,5.00,0.00,29.7,28.3,00.0,38.8,31.5,21.1,0000.3,0021.52,0010.65,0009.87
2021-10-01 22:52:00,,0829.8,5.00,0.00,29.8,28.5,00.0,38.8,31.6,21.1,0000.1,0020.79,0010.58,0009.86
2021-10-01 22:53:00,,0829.8,5.01,0.00,29.8,28.7,00.0,38.8,31.7,21.2,0000.1,0021.39,0010.58,0009.86
2021-10-01 22:54:00,,0829.8,4.99,0.00,29.8,28.8,00.0,38.8,31.7,20.9,0000.2,0022.36,0010.60,0009.88
2021-10-01 22:55:00,,0829.8,5.00,0.00,29.9,29.0,00.0,38.8,31.7,21.0,0000.2,0022.73,0010.67,0009.92
2021-10-01 22:56:00,,0829.8,5.02,0.00,29.9,29.1,00.0,38.9,31.8,21.1,0000.3,0022.61,0010.68,0009.93
2021-10-01 22:57:00,,0829.8,5.00,0.00,30.0,29.2,00.0,38.9,31.9,20.9,0000.4,0022.09,0010.74,0009.92
2021-10-01 22:58:00,,0829.8,5.00,0.00,30.0,29.3,00.0,38.9,31.9,20.6,0000.2,0021.72,0010.79,0009.93
2021-10-01 22:59:00,,0829.8,5.01,0.00,30.0,29.3,00.0,38.9,32.0,20.5,0000.1,0021.05,0010.77,0009.94
